TimeCDT,TemperatureF,Dew PointF,Humidity,Sea Level PressureIn,VisibilityMPH,Wind Direction,Wind SpeedMPH,Gust SpeedMPH,PrecipitationIn,Events,Conditions,WindDirDegrees,DateUTC
12:58 AM,79.9,68.2,67,29.94,10.0,SW,4.6,-,N/A,,Clear,220,2013-09-03 05:58:00
1:58 AM,78.4,67.3,68,29.94,10.0,West,1.2,-,N/A,,Clear,280,2013-09-03 06:58:00
2:58 AM,75.0,66.7,75,29.94,10.0,East,2.3,-,N/A,,Clear,80,2013-09-03 07:58:00
3:58 AM,72.7,66.6,81,29.94,10.0,South,3.5,-,N/A,,Clear,170,2013-09-03 08:58:00
4:58 AM,74.5,66.4,76,29.94,10.0,SW,1.2,-,N/A,,Clear,220,2013-09-03 09:58:00
5:58 AM,73.0,65.8,78,29.94,10.0,SSW,4.6,-,N/A,,Clear,210,2013-09-03 10:58:00
6:58 AM,70.9,65.7,83,29.95,10.0,SSW,3.5,-,N/A,,Clear,210,2013-09-03 11:58:00
7:58 AM,73.6,66.6,79,29.97,10.0,North,3.5,-,N/A,,Clear,350,2013-09-03 12:58:00
8:58 AM,80.2,68.4,67,29.99,10.0,Variable,5.8,-,N/A,,Clear,0,2013-09-03 13:58:00
9:58 AM,83.8,69.3,61,30.00,10.0,SSW,6.9,-,N/A,,Clear,210,2013-09-03 14:58:00
10:58 AM,87.6,66.0,49,30.01,10.0,Variable,4.6,-,N/A,,Clear,0,2013-09-03 15:58:00
11:58 AM,90.5,64.8,42,30.01,10.0,Calm,Calm,-,N/A,,Clear,0,2013-09-03 16:58:00
12:58 PM,92.7,63.3,38,29.99,10.0,South,4.6,-,N/A,,Clear,170,2013-09-03 17:58:00
1:58 PM,96.1,61.9,32,29.96,10.0,SSW,8.1,-,N/A,,Partly Cloudy,210,2013-09-03 18:58:00
2:58 PM,97.5,60.6,29,29.94,10.0,NE,5.8,-,N/A,,Partly Cloudy,50,2013-09-03 19:58:00
3:58 PM,98.6,58.1,26,29.89,10.0,Variable,2.3,-,N/A,,Clear,0,2013-09-03 20:58:00
4:58 PM,97.0,59.5,29,29.87,10.0,SE,5.8,-,N/A,,Clear,130,2013-09-03 21:58:00
5:58 PM,98.8,59.9,28,29.86,10.0,SE,6.9,-,N/A,,Clear,140,2013-09-03 22:58:00
6:58 PM,96.3,59.2,29,29.86,10.0,SE,3.5,-,N/A,,Clear,130,2013-09-03 23:58:00
7:58 PM,90.9,58.6,34,29.88,10.0,SSE,5.8,-,N/A,,Clear,160,2013-09-04 00:58:00
8:58 PM,86.2,59.7,41,29.90,10.0,South,6.9,-,N/A,,Clear,170,2013-09-04 01:58:00
9:58 PM,87.8,61.7,41,29.91,10.0,South,8.1,-,N/A,,Clear,180,2013-09-04 02:58:00
10:58 PM,86.7,67.3,52,29.94,10.0,South,11.5,-,N/A,,Scattered Clouds,180,2013-09-04 03:58:00
11:58 PM,85.1,68.5,57,29.94,10.0,SSW,10.4,-,N/A,,Clear,200,2013-09-04 04:58:00